Lid_Strength_Index
3 2 1 3 9 10 11 10 8 8 7 5 4 5 6 6 7 10 1 0 -0 -0 -1 -1 -1 -1 -2 -1 -1 -1 -1 -1 -1 -2 -2 -2 -2 -2 -2 -2 -2 -2 -1 -1 -1 -1 -1 -1 -1
5 3 3 5 11 12 12 10 11 9 7 4 4 5 6 7 4 3 2 0 -0 -0 -1 -1 -0 -1 -1 -1 -1 -1 -1 -1 -2 -2 -2 -2 -2 -2 -2 -2 -2 -2 -2 -1 -1 -2 -1 -1 -1
4 3 6 8 10 12 12 10 10 8 7 6 5 4 5 6 3 3 1 -0 -0 -0 -1 -1 -0 -1 -1 -1 -1 -1 -1 -1 -2 -2 -2 -2 -2 -2 -2 -2 -2 -2 -2 -1 -1 -1 -1 -1 -1
4 4 5 10 11 10 10 8 8 8 7 6 6 6 4 2 2 1 0 -0 0 -0 -1 -0 -1 -1 -1 -1 -1 -1 -1 -1 -1 -2 -2 -2 -2 -2 -2 -2 -2 -2 -2 -1 -1 -1 -1 -1 -1
3 5 9 10 10 9 8 8 8 8 7 7 6 7 5 2 1 0 0 -0 0 -0 -1 -1 -0 -1 -1 -1 -1 -1 -1 -1 -1 -2 -2 -2 -2 -2 -2 -2 -2 -2 -2 -1 -1 -1 -1 -1 -1
6 6 10 11 10 8 8 8 7 8 7 7 7 6 5 3 5 2 0 0 -0 -0 -1 -1 1 0 -1 -1 -1 -1 -1 -1 -1 -1 -2 -2 -2 -2 -2 -2 -2 -2 -2 -2 -2 -1 -1 -1 -0
6 7 10 9 9 8 8 8 8 8 7 7 6 8 5 7 8 5 0 -0 -0 -0 -0 -0 -1 -0 1 -0 -0 -0 -1 -1 -1 -1 -1 -1 -1 -2 -2 -2 -2 -2 -2 -2 -1 -1 -1 -0 0
4 6 9 9 9 9 7 8 6 7 8 5 6 8 9 9 9 7 3 0 0 0 -0 0 -0 -0 -1 -1 1 1 0 0 -0 -0 -0 0 -0 -1 -1 -1 -2 -2 -2 -2 -2 -2 -1 -0 0
3 8 10 9 10 8 8 9 6 6 6 5 5 7 8 9 9 9 8 5 1 1 0 -0 -0 -0 -0 -1 -0 1 2 1 1 1 1 1 -1 -1 -1 -1 -1 -2 -2 -2 -2 -2 -1 -1 -0
6 8 9 10 10 10 10 9 9 10 10 9 8 8 9 9 9 9 8 8 8 4 1 0 0 -0 -0 -0 -1 -1 -1 -1 -1 -1 -1 -1 -1 -1 -1 0 -0 -1 -1 -2 -2 -2 -1 0 2
8 8 9 11 11 12 12 12 11 12 12 10 11 11 10 9 10 10 9 8 8 7 4 0 0 -0 -0 -0 -0 -1 -1 -1 -1 -1 -1 -1 -1 -1 -1 -1 -1 -1 0 -1 -1 -1 -0 1 1
11 11 11 12 13 13 13 12 12 12 11 10 11 10 10 10 10 10 10 9 8 7 6 2 0 0 0 -0 -0 -0 -0 -1 -0 -1 -1 -1 -0 -0 -0 -0 -1 -1 -1 -1 -1 -1 -0 1 1
12 13 13 13 13 13 12 12 13 12 10 10 10 10 10 9 9 8 9 8 8 8 7 6 2 0 0 0 -0 -0 -0 -0 -1 -1 -1 -1 -0 0 -0 0 -1 -1 -1 -1 -0 -0 0 0 0
12 13 13 13 12 12 13 12 11 11 10 10 10 10 10 9 8 8 8 7 6 6 7 6 5 2 0 0 0 0 0 -0 -1 -1 -1 -1 -0 -0 0 0 0 -0 -0 -0 -0 0 1 1 1
13 14 13 13 13 13 12 13 13 11 10 11 11 10 9 9 8 8 7 7 6 4 2 3 1 1 0 0 0 0 0 -0 -0 -0 -1 -1 -1 -0 -0 0 0 0 0 0 0 0 0 1 1
13 13 14 13 13 12 12 14 12 11 11 11 11 10 10 9 8 8 7 7 7 5 4 3 4 3 4 5 0 0 0 0 -0 -0 -0 -0 -0 -1 -0 0 0 -0 0 1 0 0 1 1 1
13 14 15 14 14 14 14 13 11 10 11 12 11 10 10 9 8 8 8 7 7 7 7 4 3 4 5 4 6 0 0 0 0 0 -0 -0 -0 -0 -0 0 -0 0 0 1 1 0 0 1 1
17 16 15 15 13 14 14 14 11 11 12 11 11 10 10 10 9 8 8 7 8 7 7 6 6 6 5 5 6 6 1 0 0 0 1 0 -0 -0 -0 0 0 0 1 1 1 1 0 1 1
16 16 16 14 14 16 14 13 12 11 11 11 11 11 10 10 9 8 8 7 8 8 8 7 7 7 6 7 7 7 8 7 3 0 1 1 0 0 0 0 0 0 1 1 1 1 1 1 1
16 16 15 14 15 16 15 15 12 11 11 11 11 10 10 10 9 8 8 8 8 8 8 8 7 7 6 6 7 7 7 7 7 7 0 0 1 0 0 0 0 1 1 1 1 2 2 2 2
15 17 17 18 15 14 16 14 13 12 11 11 10 10 9 10 10 9 9 8 8 8 8 8 7 7 6 5 7 7 7 7 8 8 7 6 2 1 1 0 0 1 1 1 1 2 2 3 2
17 16 16 17 17 17 15 17 12 12 12 11 10 10 10 10 9 9 9 8 8 8 7 7 7 6 6 5 5 10 10 10 9 8 7 7 6 4 1 1 0 1 1 1 2 1 2 2 3
16 15 16 17 17 18 17 18 13 13 13 12 11 10 10 9 9 9 9 8 8 7 7 6 7 6 6 5 5 6 10 9 9 8 8 7 6 6 1 1 1 1 1 1 1 2 2 2 2
15 15 16 17 17 18 17 17 15 13 13 12 10 10 10 9 9 9 8 8 8 7 7 6 6 6 6 5 5 6 9 9 10 10 9 8 6 6 6 1 1 1 1 1 1 1 1 2 2
15 16 16 16 17 17 17 18 15 12 11 11 11 10 10 9 9 9 9 9 8 7 7 6 7 7 6 5 5 5 7 9 9 9 9 8 7 6 6 6 3 1 1 1 1 1 1 1 2
17 17 17 20 19 18 16 19 14 11 10 10 10 10 10 9 9 9 8 8 8 7 7 7 6 6 6 5 5 4 5 7 8 7 8 8 7 6 6 6 6 4 1 1 1 1 1 1 1
17 17 17 19 21 22 17 15 12 11 11 11 10 10 10 10 9 9 8 8 8 8 7 7 6 6 6 6 5 5 4 5 7 8 7 7 7 6 6 6 6 6 1 1 1 2 1 1 1
17 15 18 18 21 21 17 16 15 12 11 11 11 11 11 10 9 8 8 8 8 7 6 6 6 6 6 5 5 5 4 4 4 8 9 8 7 6 5 5 5 5 5 2 2 2 2 2 1
19 18 19 19 19 20 21 16 12 12 11 12 11 10 10 10 9 8 8 8 8 7 6 6 6 6 6 5 5 4 4 3 3 5 8 8 8 6 6 5 5 5 5 2 2 2 2 2 2
17 17 17 18 20 19 20 19 11 11 12 12 11 10 10 9 8 8 9 8 8 8 8 7 7 7 6 5 5 4 4 4 3 3 5 8 9 8 6 6 5 5 5 3 3 3 3 3 3